Location: Newark
(33.6439°N, 114.9881°W)
Time: 01:00:44
(UTC+00:00)

Vanguard 3 - Visible Passes

Search period start: 21 July 2019 00:00
Search period end: 31 July 2019 00:00
Orbit: 507 x 3264 km, 33.4° (Epoch: 20 July)

Date Brightness Start Highest point End Pass type
(mag) Time Alt. Az. Time Alt. Az. Time Alt. Az.
21 Jul 9.5 08:39:20 38° SE 08:39:20 38° SE 08:51:29 10° E visible
21 Jul 9.4 10:43:53 27° WSW 10:51:44 78° SSE 11:10:24 10° E visible
22 Jul 10.4 07:29:19 15° ESE 07:29:19 15° ESE 07:32:29 10° E visible
22 Jul 8.8 09:33:51 53° SSW 09:36:16 62° SSE 09:52:20 10° ENE visible
22 Jul 9.7 11:38:31 10° W 11:51:14 88° S 12:11:00 10° E visible
23 Jul 9.4 08:23:50 38° ESE 08:23:50 38° ESE 08:34:14 10° E visible
23 Jul 9.2 10:28:22 31° WSW 10:35:00 81° SSE 10:52:58 10° E visible
24 Jul 10.4 07:13:49 14° E 07:13:49 14° E 07:15:46 10° E visible
24 Jul 8.6 09:18:22 62° S 09:19:41 66° SSE 09:34:54 10° ENE visible
24 Jul 9.5 11:22:55 11° W 11:34:25 89° S 11:53:38 10° E visible
25 Jul 9.4 08:08:22 36° ESE 08:08:22 36° ESE 08:17:02 10° E visible
25 Jul 9.0 10:12:56 36° WSW 10:18:23 84° SSE 10:35:31 10° E visible
26 Jul 10.4 06:58:24 11° E 06:58:24 11° E 06:59:04 10° E visible
26 Jul 8.5 09:02:56 70° S 09:03:13 70° SSE 09:17:31 10° E visible
26 Jul 9.4 11:07:29 14° W 11:17:41 89° S 11:36:14 10° E visible
27 Jul 9.5 07:53:00 32° E 07:53:00 32° E 07:59:53 10° E visible
27 Jul 8.8 09:57:33 42° WSW 10:01:54 86° S 10:18:06 10° E visible
27 Jul 9.7 12:04:53 10° W 12:17:15 83° SSW 12:36:45 10° ESE visible
28 Jul 8.4 08:47:37 71° SE 08:47:37 71° SE 09:00:12 10° E visible
28 Jul 9.2 10:52:11 16° W 11:01:04 89° S 11:18:48 10° E visible
29 Jul 9.6 07:37:45 27° E 07:37:45 27° E 07:42:49 10° E visible
29 Jul 8.6 09:42:19 50° W 09:45:32 88° S 10:00:42 10° E visible
29 Jul 9.5 11:48:57 10° W 12:00:26 80° SSW 12:19:15 10° ESE visible
30 Jul 8.5 08:32:30 61° E 08:32:30 61° E 08:42:58 10° E visible
30 Jul 9.0 10:37:04 21° W 10:44:32 87° S 11:01:21 10° E visible
